IRIDIUM 33 DEB, 34350

Orbit data source: Space-Track

IRIDIUM 33 DEB, 34350 is space debris in LEO originally from a launch on Sun, 14 Sep 1997 UTC launched from the Tyuratam Missile And Space Complex (TTMTR). The debris from Iridium 33, an American commercial communications satellite, has been tracked extensively since its accidental collision with the defunct Russian satellite Cosmos 2251 in 2009. This event, occurring at high speed in low Earth orbit (LEO), generated thousands of pieces of space debris, significantly increasing the risk of further collisions. The Iridium 33 debris cloud has impacted space traffic management and orbital debris mitigation strategies, making it a subject of ongoing study in space situational awareness.

Loading next visibility...
Identifier
34350, 1997-051ES
Orbit
LEO
Country
Flag of USUS
Related business
Manufacturer
Unknown
Mission
Spacecraft
Bus & Motor
Unknown
Mass
Unknown
Launch date (UTC)
1997-09-14 (29 years ago)
Launch vehicle
Unknown
Launch site
Tyuratam Missile And Space Complex (TTMTR)
Object type
Payload
Rocket body
Debris
Shape & HBR
Unknown shape, 0.1 m
Radar Cross Section
Medium (>0.1 m² and <1 m²)

Expand to show TLE details & history
Last TLE update: 11 hours ago

TLE from 11 hours ago
0 IRIDIUM 33 DEB
1 34350U 97051ES  26263.44253153  .00000725  00000-0  19763-3 0  9996
2 34350  86.3240 240.4792 0018643 286.6268 197.2696 14.46017131923639
Epoch: 2026-09-20T10:37Z
TLE epoch observation values (Epoch: 2026-09-20T10:37:14.724Z)
Latitude
56.08975°
Longitude
-103.6237°
Altitude
760.805 km
Speed
7.473 km/s
True Right ascension
03h 40m 05s
True Declination
55° 55' 49"
Sunlit
Object was in daylight at epoch
Visualization orbit readout
Latitude
Unknown
Longitude
Unknown
Altitude
Unknown
Speed
Unknown
Apparent Right ascension
Unknown
Apparent Declination
Unknown
Sunlit
N/A
Visualization observer readout
Local Sidereal Time
14:40:50
Azimuth
Unknown
Elevation
Unknown
Doppler factor
Unknown
Orbital elements
Apogee altitude
748.898 km
Perigee altitude
722.374 km
Semi-major axis
7,113.773 km
Eccentricity
0.00186
Inclination
86.324°
RAAN
240.4792°
Arg. of periapsis
286.6268°
True anomaly
197.20632°
Mean anomaly
197.2696°
Eccentric anomaly
197.23795°
Mean motion
3.61737 °/min
Orbital period
99.52 mins
BSTAR
0.00019763

Documentation

Showing up to 5 results
|